Location: Biltmore Gardens
(41.6070°N, 83.4666°W)
Time: 01:50:37
(UTC+00:00)

N. Korean satellite - Pass Details

Date: 07 March 2021
Orbit: 453 x 499 km, 97.2° (Epoch: 11 April)

Event Time Altitude Azimuth Distance (km) Brightness Sun altitude
Rises 09:55:29 0° 34° (NNE) 2,542 10.9 -23.7°
Reaches altitude 10° 09:58:31 10° 63° (ENE) 1,668 10.3 -23.1°
Maximum altitude 10:00:15 13° 92° (E) 1,489 10.0 -22.8°
Drops below altitude 10° 10:01:59 10° 121° (ESE) 1,673 9.9 -22.5°
Sets 10:05:02 0° 150° (SSE) 2,557 10.4 -21.9°
